Nome, AK

12:59 AM AKST on December 07, 2016 (GMT -0900)
Nome

Weather History for PAOM - February, 2011

Change the Weather History Date:

Saturday, February 5, 2011

  Actual Average Record
Temperature  
Mean Temperature 14 °F -  
Max Temperature 19 °F 14 °F 42 °F (1995)
Min Temperature 9 °F -2 °F -42 °F (1947)
Degree Days  
Heating Degree Days 51 59  
Month to date heating degree days 288 296  
Since 1 July heating degree days 7441 7967  
Cooling Degree Days 0    
Month to date cooling degree days 0  
Year to date cooling degree days 0  
Moisture  
Dew Point 7 °F    
Average Humidity 0    
Maximum Humidity 0    
Minimum Humidity 0    
Precipitation  
Precipitation 0.00 in 0.03 in 0.23 in (2012)
Month to date precipitation T 0.16  
Year to date precipitation 1.16 1.10  
Snow  
Snow 0.00 in 0.40 in 3.30 in (2003)
Month to date snowfall 0.3 2.1  
Since 1 July snowfall 50.1 46.6  
Snow Depth 27.00 in    
Sea Level Pressure  
Sea Level Pressure 30.17 in    
Wind  
Wind Speed 9 mph (ENE)    
Max Wind Speed 16 mph    
Max Gust Speed 21 mph    
Visibility 10 miles    
Events      
T = Trace of Precipitation, MM = Missing Value Source: NWS Daily Summary

Daily Weather History Graph

Daily Weather History Graph

Search for Another Location

Airport or City:

Trip Planner

Search our weather history database for the weather conditions in past years. The results will help you decide how hot, cold, wet, or windy it might be!

Date:

Astronomy

Feb. 05, 2011 Rise Set
Actual Time 10:32 AM AKST 6:00 PM AKST
Civil Twilight 9:36 AM AKST 6:56 PM AKST
Nautical Twilight 8:37 AM AKST 7:55 PM AKST
Astronomical Twilight 7:41 AM AKST 8:51 PM AKST
Moon 10:08 AM AKST (2/5) 10:34 PM AKST (2/5)
Length of Visible Light 9h 20m
Length of Day
7h 28m
Waxing Crescent, 7% of the Moon is Illuminated
Feb 5
Waxing Crescent
Feb 10
First Quarter
Feb 17
Full
Feb 24
Last Quarter
Mar 4
New

Hourly Weather History & Observations

Time (AKST) Temp. Windchill Dew Point Humidity Pressure Visibility Wind Dir Wind Speed Gust Speed Precip Events Conditions
12:53 AM 10.9 °F -2.6 °F 5.0 °F 77% 30.25 in 10.0 mi East 10.4 mph - N/A   Mostly Cloudy
1:53 AM 12.0 °F -1.3 °F 6.1 °F 77% 30.23 in 10.0 mi East 10.4 mph - N/A   Mostly Cloudy
2:53 AM 10.9 °F -3.4 °F 5.0 °F 77% 30.23 in 10.0 mi East 11.5 mph - N/A   Mostly Cloudy
3:53 AM 12.9 °F -1.6 °F 6.1 °F 74% 30.22 in 10.0 mi East 12.7 mph - N/A   Mostly Cloudy
4:53 AM 10.9 °F -4.1 °F 6.1 °F 81% 30.21 in 10.0 mi East 12.7 mph - N/A   Mostly Cloudy
5:53 AM 12.9 °F -2.2 °F 7.0 °F 77% 30.19 in 10.0 mi ENE 13.8 mph - N/A   Mostly Cloudy
6:53 AM 12.0 °F -2.7 °F 7.0 °F 80% 30.19 in 10.0 mi East 12.7 mph - N/A   Mostly Cloudy
7:53 AM 12.2 °F -3.1 °F 8.6 °F 85% 30.18 in 10.0 mi ENE 13.8 mph - N/A   Mostly Cloudy
8:53 AM 14.0 °F 1.2 °F 9.0 °F 80% 30.19 in 10.0 mi ENE 10.4 mph - N/A   Mostly Cloudy
9:53 AM 12.9 °F 1.6 °F 8.1 °F 81% 30.18 in 10.0 mi ENE 8.1 mph - N/A   Mostly Cloudy
10:53 AM 12.0 °F 0.5 °F 7.0 °F 80% 30.19 in 10.0 mi NE 8.1 mph - N/A   Mostly Cloudy
11:53 AM 10.0 °F -0.9 °F 6.1 °F 84% 30.19 in 10.0 mi NE 6.9 mph - N/A   Mostly Cloudy
12:53 PM 12.9 °F 1.6 °F 8.1 °F 81% 30.18 in 10.0 mi NE 8.1 mph - N/A   Mostly Cloudy
1:53 PM 12.0 °F - 7.0 °F 80% 30.16 in 10.0 mi Calm Calm - N/A   Overcast
2:53 PM 12.9 °F - 8.1 °F 81% 30.16 in 10.0 mi Calm Calm - N/A   Overcast
3:53 PM 16.0 °F 5.3 °F 9.0 °F 74% 30.15 in 10.0 mi NE 8.1 mph - N/A   Overcast
4:53 PM 18.0 °F 9.8 °F 9.0 °F 68% 30.16 in 10.0 mi ENE 5.8 mph - N/A   Overcast
5:53 PM 18.0 °F 8.7 °F 9.0 °F 68% 30.16 in 10.0 mi ENE 6.9 mph - N/A   Mostly Cloudy
6:53 PM 15.1 °F 4.2 °F 7.0 °F 70% 30.15 in 10.0 mi NE 8.1 mph - N/A   Mostly Cloudy
7:53 PM 17.1 °F 6.6 °F 8.1 °F 68% 30.14 in 10.0 mi ENE 8.1 mph - N/A   Mostly Cloudy
8:53 PM 16.0 °F 6.3 °F 7.0 °F 68% 30.12 in 10.0 mi NE 6.9 mph - N/A   Mostly Cloudy
9:53 PM 18.0 °F 7.7 °F 8.1 °F 65% 30.12 in 10.0 mi ENE 8.1 mph - N/A   Mostly Cloudy
10:53 PM 17.1 °F 4.3 °F 7.0 °F 65% 30.12 in 10.0 mi NE 11.5 mph - N/A   Mostly Cloudy
11:53 PM 18.0 °F 6.1 °F 7.0 °F 62% 30.12 in 10.0 mi NE 10.4 mph - N/A   Scattered Clouds